Location: Wolf Creek Estates Observatory
(33.4774°N, 105.6743°W)
Time: 18:59:18
(UTC-07:00)

N. Korean satellite - Visible Passes

Search period start: 23 January 2018 00:00
Search period end: 02 February 2018 00:00
Orbit: 458 x 515 km, 97.2° (Epoch: 23 January)

Date Brightness Start Highest point End Pass type
(mag) Time Alt. Az. Time Alt. Az. Time Alt. Az.
23 Jan 9.7 18:54:28 10° SW 18:56:52 17° W 18:59:16 10° NW visible
24 Jan 7.8 06:24:19 10° NNE 06:27:38 45° E 06:30:59 10° S visible
24 Jan 8.3 18:29:49 10° SSW 18:33:08 36° W 18:36:24 10° NNW visible
25 Jan 9.5 06:01:15 10° NE 06:03:54 21° E 06:06:34 10° SSE visible
25 Jan 6.6 18:05:54 10° S 18:09:27 84° W 18:12:58 10° NNW visible
27 Jan 9.7 18:53:15 10° SW 18:55:39 17° W 18:58:03 10° NW visible
28 Jan 7.9 06:23:04 10° NNE 06:26:24 44° E 06:29:46 10° S visible
28 Jan 8.2 18:28:37 10° SSW 18:31:54 36° W 18:35:10 10° NNW visible
29 Jan 9.5 06:00:01 10° NE 06:02:40 20° E 06:05:19 10° SE visible
29 Jan 6.5 18:04:41 10° S 18:08:13 87° WSW 18:11:42 10° NNW visible
31 Jan 9.7 18:51:58 10° SW 18:54:23 18° W 18:56:48 10° NW visible
01 Feb 8.0 06:21:47 10° NNE 06:25:08 43° E 06:28:31 10° S visible
01 Feb 8.2 18:27:21 10° SSW 18:30:37 37° W 18:33:52 10° NNW visible
